Showing default

NIMIQ 6, 38342

Orbit data source: Space-Track

NIMIQ 6, 38342 is a payload satellite owned by Telesat (Loral) (CA) in GEO that was launched on Thu, 17 May 2012 UTC via a PROTON-M/BRIZ-M launch vehicle from the Tyuratam Missile And Space Complex (TTMTR). Payload-class satellites include a variety of spacecraft equipped with specific instruments for various scientific and technological missions. These include communications satellites like Starlink; space stations such as the ISS; scientific satellites like the Hubble; Earth observation satellites from companies like Planet Labs, Umbra, and HawkEye 360; GPS; miniature CubeSats for education and research; and military/defense satellites.

Loading next visibility...
Identifier
38342, 2012-026A
Orbit
GEO
Country
Flag of CACA
Related business
Manufacturer
SS/Loral
Mission
Operational Commercial Communications
Bus & Motor
SSL-1300, R-4D
Mass
4,745 kg wet, ~2,000 kg dry
Launch date (UTC)
2012-05-17 (13 years ago)
Launch vehicle
PROTON-M/BRIZ-M
Launch site
Tyuratam Missile And Space Complex (TTMTR)
Object type
Payload
Rocket body
Debris
Shape & HBR
Box + 2 Pan, 13.0 m
Radar Cross Section
34.256 m², Large (>1 m²)

Expand to show TLE details & history
Last TLE update: 19 hours ago

TLE from 19 hours ago
0 NIMIQ 6
1 38342U 12026A   25261.13576044  .00000000  00000-0  00000-0 0  9997
2 38342   0.0198 165.9803 0002739  16.8487 132.2537  1.00269450 47682
Epoch: 2025-09-18T03:15Z
TLE epoch observation values (Epoch: 2025-09-18T03:15:29.702Z)
Latitude
0.02069°
Longitude
-91.06768°
Altitude
35,794.558 km
Speed
3.074 km/s
True Right ascension
21h 00m 25s
True Declination
0° 01' 14"
Sunlit
Object was in daylight at epoch
Visualization orbit readout
Latitude
Unknown
Longitude
Unknown
Altitude
Unknown
Speed
Unknown
Apparent Right ascension
Unknown
Apparent Declination
Unknown
Sunlit
N/A
Visualization observer readout
Local Sidereal Time
14:44:34
Azimuth
Unknown
Elevation
Unknown
Doppler factor
Unknown
Orbital elements
Apogee altitude
35,799.869 km
Perigee altitude
35,776.771 km
Semi-major axis
42,166.457 km
Eccentricity
0.00027
Inclination
0.0198°
RAAN
165.9803°
Arg. of periapsis
16.8487°
True anomaly
132.27693°
Mean anomaly
132.2537°
Eccentric anomaly
132.26531°
Mean motion
0.25066 °/min
Orbital period
1,436.18 mins
BSTAR
0
Loading maneuver chart data...
Computing Atmospheric mass density...
Loading historical data...
Loading historical data...
Loading historical data...
Loading historical data...
Loading historical data...
Loading historical data...
Loading historical data...

Documentation

Showing up to 5 results
|